TimeEST,TemperatureF,Dew PointF,Humidity,Sea Level PressureIn,VisibilityMPH,Wind Direction,Wind SpeedMPH,Gust SpeedMPH,PrecipitationIn,Events,Conditions,WindDirDegrees,DateUTC
12:52 AM,28.9,25.0,85,29.69,10.0,NNW,5.8,-,N/A,,Overcast,340,2002-01-25 05:52:00
1:52 AM,28.0,24.1,85,29.72,10.0,NNW,5.8,-,N/A,,Overcast,340,2002-01-25 06:52:00
2:27 AM,28.4,24.8,86,29.68,10.0,Calm,Calm,-,N/A,,Overcast,0,2002-01-25 07:27:00
2:42 AM,26.6,24.8,93,29.68,10.0,West,5.8,-,N/A,,Overcast,270,2002-01-25 07:42:00
2:52 AM,27.0,24.1,89,29.73,10.0,Variable,3.5,-,N/A,,Overcast,0,2002-01-25 07:52:00
3:52 AM,26.1,21.9,84,29.75,10.0,West,5.8,-,N/A,,Overcast,270,2002-01-25 08:52:00
4:52 AM,25.0,21.9,88,29.76,10.0,Variable,3.5,-,N/A,,Overcast,0,2002-01-25 09:52:00
5:52 AM,23.0,19.9,88,29.80,10.0,Variable,4.6,-,N/A,,Overcast,0,2002-01-25 10:52:00
6:52 AM,21.9,19.0,89,29.83,10.0,Calm,Calm,-,N/A,,Overcast,0,2002-01-25 11:52:00
7:17 AM,21.2,19.4,93,29.78,6.0,Calm,Calm,-,N/A,,Overcast,0,2002-01-25 12:17:00
7:52 AM,23.0,19.9,88,29.84,8.0,Calm,Calm,-,N/A,,Overcast,0,2002-01-25 12:52:00
8:52 AM,23.0,19.9,88,29.84,3.0,Calm,Calm,-,0.00,Snow,Light Snow,0,2002-01-25 13:52:00
9:02 AM,24.8,19.4,80,29.80,2.5,Calm,Calm,-,0.00,Snow,Light Snow,0,2002-01-25 14:02:00
9:52 AM,25.0,21.0,85,29.85,6.0,Calm,Calm,-,0.00,Snow,Light Snow,0,2002-01-25 14:52:00
10:08 AM,26.6,21.2,80,29.80,4.0,Variable,3.5,-,0.00,Snow,Light Snow,0,2002-01-25 15:08:00
10:52 AM,26.1,21.0,81,29.85,6.0,Variable,5.8,-,0.00,Snow,Light Snow,0,2002-01-25 15:52:00
11:22 AM,24.8,19.4,80,29.79,5.0,Variable,5.8,-,0.00,Snow,Light Snow,0,2002-01-25 16:22:00
11:52 AM,25.0,19.9,81,29.84,6.0,West,6.9,-,0.00,Snow,Light Snow,270,2002-01-25 16:52:00
12:32 PM,24.8,19.4,80,29.78,10.0,West,5.8,-,0.00,,Partly Cloudy,270,2002-01-25 17:32:00
12:52 PM,25.0,19.0,78,29.83,10.0,West,8.1,-,0.00,,Mostly Cloudy,270,2002-01-25 17:52:00
1:52 PM,26.1,19.9,78,29.81,10.0,Calm,Calm,-,N/A,,Overcast,0,2002-01-25 18:52:00
2:52 PM,27.0,21.9,81,29.81,9.0,Variable,5.8,-,0.00,,Overcast,0,2002-01-25 19:52:00
3:52 PM,27.0,23.0,85,29.82,3.0,Variable,5.8,-,0.00,Snow,Light Snow,0,2002-01-25 20:52:00
4:30 PM,28.4,24.8,86,29.79,2.5,Variable,4.6,-,0.00,Snow,Light Snow,0,2002-01-25 21:30:00
4:41 PM,28.4,24.8,86,29.80,1.2,Variable,4.6,-,0.00,Snow,Light Snow,0,2002-01-25 21:41:00
4:45 PM,28.4,24.8,86,29.80,1.0,West,5.8,-,0.01,Snow,Light Snow,280,2002-01-25 21:45:00
4:52 PM,27.0,26.1,96,29.86,0.8,West,3.5,-,0.01,Snow,Light Snow,270,2002-01-25 21:52:00
5:09 PM,26.6,26.6,100,29.82,1.0,Calm,Calm,-,0.01,Snow,Light Snow,0,2002-01-25 22:09:00
5:12 PM,26.6,26.6,100,29.82,0.8,West,3.5,-,0.02,Snow,Light Snow,280,2002-01-25 22:12:00
5:19 PM,26.6,26.6,100,29.82,0.5,NNW,3.5,-,0.03,Fog-Snow,Snow,330,2002-01-25 22:19:00
5:28 PM,26.6,26.6,100,29.82,0.8,NNW,3.5,-,0.03,Snow,Light Snow,330,2002-01-25 22:28:00
5:37 PM,26.6,26.6,100,29.83,0.8,NW,4.6,-,0.04,Snow,Light Snow,310,2002-01-25 22:37:00
5:52 PM,27.0,26.1,96,29.90,0.5,NW,4.6,-,0.06,Fog-Snow,Snow,320,2002-01-25 22:52:00
6:29 PM,26.6,24.8,93,29.86,1.5,NW,8.1,-,0.03,Snow,Light Snow,320,2002-01-25 23:29:00
6:33 PM,26.6,24.8,93,29.87,3.0,NNW,5.8,-,0.03,Snow,Light Snow,330,2002-01-25 23:33:00
6:52 PM,27.0,24.1,89,29.94,1.0,NW,3.5,-,0.03,Snow,Light Snow,320,2002-01-25 23:52:00
7:01 PM,26.6,24.8,93,29.88,1.0,NW,3.5,-,0.00,Snow,Light Snow,320,2002-01-26 00:01:00
7:06 PM,26.6,24.8,93,29.88,2.0,Calm,Calm,-,0.00,Snow,Light Snow,0,2002-01-26 00:06:00
7:15 PM,26.6,24.8,93,29.88,4.0,Calm,Calm,-,0.00,Snow,Light Snow,0,2002-01-26 00:15:00
7:40 PM,26.6,24.8,93,29.89,2.5,Variable,5.8,-,0.00,Snow,Light Snow,0,2002-01-26 00:40:00
7:45 PM,26.6,24.8,93,29.90,2.0,WNW,3.5,-,0.00,Snow,Light Snow,290,2002-01-26 00:45:00
7:52 PM,26.1,24.1,92,29.95,2.0,West,4.6,-,0.00,Snow,Light Snow,280,2002-01-26 00:52:00
7:56 PM,26.6,24.8,93,29.90,3.0,WNW,3.5,-,0.00,Snow,Light Snow,290,2002-01-26 00:56:00
8:04 PM,26.6,24.8,93,29.90,4.0,Calm,Calm,-,0.00,Snow,Light Snow,0,2002-01-26 01:04:00
8:52 PM,25.0,21.9,88,29.97,4.0,Variable,3.5,-,0.00,Snow,Light Snow,0,2002-01-26 01:52:00
9:52 PM,25.0,21.9,88,29.96,4.0,Calm,Calm,-,0.00,Snow,Light Snow,0,2002-01-26 02:52:00
10:05 PM,24.8,21.2,86,29.90,7.0,Variable,3.5,-,0.00,Snow,Light Snow,0,2002-01-26 03:05:00
10:52 PM,25.0,21.9,88,29.94,7.0,Calm,Calm,-,0.00,Snow,Light Snow,0,2002-01-26 03:52:00
11:52 PM,24.1,21.0,88,29.94,5.0,Calm,Calm,-,0.00,Snow,Light Snow,0,2002-01-26 04:52:00
11:59 PM,24.8,21.2,86,29.89,4.0,Calm,Calm,-,0.01,Snow,Light Snow,0,2002-01-26 04:59:00